Date String (YYYY-MM-DD hh:mm:ss) UTC,Instrument flags,absolute air pressure of the measurement (hPa),sample flow rate (lpm),inlet stack bypass flow (lpm),air temperature of the measurement (°C),ambient temperature measured by the external sensor (°C),aerosol sample conditioner tube jacket temperature (°C),OPC LED temperature (°C),internal box temperature (°C),relative humidity of the measurement (%),span deviation,mass concentration of particles derived from Lorenz-Mie calculation of OPC scattering (μg/m³),mass concentration of particles derived from Lorenz-Mie calculation of OPC scattering (μg/m³),mass concentration of particles derived from Lorenz-Mie calculation of OPC scattering (μg/m³)
DateTimeUTC,F1_M11,P_M11,Q1_M11,Q2_M11,T1_M11,T2_M11,T3_M11,T4_M11,T5_M11,U1_M11,ZSPAN_M11,X0_M11,X2_M11,X1_M11
2023-08-23 05:00:00,SystemResetWarning,0833.7,4.99,000.00,027.7,025.5,000.0,036.1,029.4,23.5,0001.0,0013.95,0007.75,0006.74
2023-08-23 05:01:00,SystemResetWarning,0833.7,5.00,000.00,027.7,025.8,000.0,036.1,029.4,23.4,0000.9,0013.34,0007.73,0006.75
2023-08-23 05:02:00,SystemResetWarning,0833.6,5.00,000.00,027.8,026.1,000.0,036.1,029.5,23.3,0000.7,0013.25,0007.74,0006.75
2023-08-23 05:03:00,SystemResetWarning,0833.7,5.00,000.00,027.8,026.3,000.0,036.2,029.6,23.2,0000.8,0014.12,0007.74,0006.73
2023-08-23 05:04:00,SystemResetWarning,0833.7,5.00,000.00,027.9,026.5,000.0,036.2,029.7,23.2,0000.7,0014.07,0007.70,0006.70
2023-08-23 05:05:00,SystemResetWarning,0833.6,5.00,000.00,027.9,026.7,000.0,036.2,029.7,23.1,0000.6,0014.23,0007.69,0006.71
2023-08-23 05:06:00,SystemResetWarning,0833.7,5.00,000.00,028.0,026.7,000.0,036.2,029.7,23.0,0000.5,0015.22,0007.70,0006.73
2023-08-23 05:07:00,SystemResetWarning,0833.7,4.98,000.00,027.9,025.1,000.0,036.1,029.4,23.0,0000.5,0015.83,0007.75,0006.76
2023-08-23 05:08:00,SystemResetWarning,0833.7,5.01,000.00,027.8,023.5,000.0,036.0,029.0,23.2,0000.7,0016.64,0007.81,0006.77
2023-08-23 05:09:00,SystemResetWarning,0833.7,5.01,000.00,027.7,023.5,000.0,035.9,028.9,23.3,0000.7,0016.71,0007.84,0006.77
2023-08-23 05:10:00,SystemResetWarning,0833.7,5.01,000.00,027.6,023.8,000.0,036.0,028.9,23.4,0000.7,0016.97,0007.83,0006.78
2023-08-23 05:11:00,SystemResetWarning,0833.7,5.00,000.00,027.6,024.3,000.0,036.0,029.0,23.5,0000.4,0016.57,0007.79,0006.77
2023-08-23 05:12:00,SystemResetWarning,0833.7,5.01,000.00,027.6,024.8,000.0,036.0,029.1,23.5,0000.7,0017.01,0007.82,0006.77
2023-08-23 05:13:00,SystemResetWarning,0833.6,5.00,000.00,027.6,025.2,000.0,036.0,029.2,23.4,0001.1,0017.37,0007.80,0006.76
2023-08-23 05:14:00,SystemResetWarning,0833.7,5.00,000.00,027.6,025.6,000.0,036.1,029.3,23.3,0001.2,0016.60,0007.75,0006.76
2023-08-23 05:15:00,SystemResetWarning,0833.7,5.00,000.00,027.7,025.9,000.0,036.1,029.4,23.3,0001.5,0016.18,0007.71,0006.77
2023-08-23 05:16:00,SystemResetWarning,0833.7,4.99,000.00,027.7,026.2,000.0,036.1,029.5,23.2,0001.6,0015.92,0007.71,0006.78
2023-08-23 05:17:00,SystemResetWarning,0833.7,5.00,000.00,027.7,026.4,000.0,036.1,029.5,23.2,0002.1,0014.85,0007.74,0006.77
2023-08-23 05:18:00,SystemResetWarning,0833.7,5.00,000.00,027.8,026.6,000.0,036.1,029.6,23.1,0002.2,0014.44,0007.71,0006.76
2023-08-23 05:19:00,SystemResetWarning,0833.7,5.01,000.00,027.8,026.7,000.0,036.2,029.7,23.0,0002.2,0013.69,0007.68,0006.76
2023-08-23 05:20:00,SystemResetWarning,0833.7,4.99,000.00,027.9,026.9,000.0,036.2,029.7,22.9,0002.3,0013.53,0007.64,0006.77
2023-08-23 05:21:00,SystemResetWarning,0833.7,5.00,000.00,028.0,027.0,000.0,036.2,029.8,22.8,0002.0,0013.21,0007.61,0006.76
2023-08-23 05:22:00,SystemResetWarning,0833.7,4.99,000.00,028.0,026.1,000.0,036.2,029.6,22.8,0002.3,0013.01,0007.63,0006.76
2023-08-23 05:23:00,SystemResetWarning,0833.7,5.02,000.00,027.9,024.6,000.0,036.1,029.3,22.8,0002.3,0012.89,0007.62,0006.75
2023-08-23 05:24:00,SystemResetWarning,0833.7,5.01,000.00,027.8,024.5,000.0,036.0,029.2,22.9,0002.4,0012.43,0007.63,0006.76
2023-08-23 05:25:00,SystemResetWarning,0833.7,5.00,000.00,027.8,024.7,000.0,036.1,029.2,22.9,0002.1,0012.42,0007.62,0006.77
2023-08-23 05:26:00,SystemResetWarning,0833.7,5.00,000.00,027.7,025.1,000.0,036.1,029.3,22.9,0001.6,0012.68,0007.66,0006.79
2023-08-23 05:27:00,SystemResetWarning,0833.7,5.01,000.00,027.8,025.4,000.0,036.1,029.4,23.0,0001.4,0012.70,0007.67,0006.79
2023-08-23 05:28:00,SystemResetWarning,0833.8,5.00,000.00,027.8,025.8,000.0,036.2,029.5,22.9,0001.3,0012.73,0007.65,0006.81
2023-08-23 05:29:00,SystemResetWarning,0833.8,4.99,000.00,027.8,026.1,000.0,036.2,029.5,22.7,0001.1,0012.52,0007.66,0006.82
2023-08-23 05:30:00,SystemResetWarning,0833.8,4.99,000.00,027.9,026.3,000.0,036.2,029.6,22.7,0001.1,0013.38,0007.69,0006.83
2023-08-23 05:31:00,SystemResetWarning,0833.8,5.01,000.00,027.9,026.6,000.0,036.2,029.7,22.6,0000.9,0014.04,0007.75,0006.83
2023-08-23 05:32:00,SystemResetWarning,0833.8,5.00,000.00,028.0,026.7,000.0,036.3,029.8,22.6,0001.2,0014.38,0007.80,0006.85
2023-08-23 05:33:00,SystemResetWarning,0833.8,5.01,000.00,028.0,026.9,000.0,036.3,029.8,22.5,0001.5,0014.50,0007.82,0006.88
2023-08-23 05:34:00,SystemResetWarning,0833.8,4.98,000.00,028.1,026.5,000.0,036.3,029.8,22.5,0001.6,0014.41,0007.83,0006.89
2023-08-23 05:35:00,SystemResetWarning,0833.8,5.00,000.00,028.0,024.7,000.0,036.2,029.5,23.0,0001.6,0014.54,0007.85,0006.91
2023-08-23 05:36:00,SystemResetWarning,0833.9,5.00,000.00,027.9,023.5,000.0,036.1,029.1,23.1,0001.4,0014.46,0007.85,0006.90
2023-08-23 05:37:00,SystemResetWarning,0833.9,5.02,000.00,027.7,023.7,000.0,036.0,029.0,23.2,0001.7,0014.32,0007.87,0006.90
2023-08-23 05:38:00,SystemResetWarning,0833.9,5.01,000.00,027.7,024.1,000.0,036.1,029.1,23.2,0002.0,0014.16,0007.85,0006.90
2023-08-23 05:39:00,SystemResetWarning,0834.0,4.99,000.00,027.7,024.5,000.0,036.1,029.1,23.1,0001.9,0014.19,0007.86,0006.89
2023-08-23 05:40:00,SystemResetWarning,0834.0,5.00,000.00,027.7,025.0,000.0,036.1,029.2,23.1,0002.0,0014.20,0007.87,0006.90
2023-08-23 05:41:00,SystemResetWarning,0834.0,5.00,000.00,027.7,025.4,000.0,036.1,029.3,23.0,0001.8,0013.80,0007.85,0006.90
2023-08-23 05:42:00,SystemResetWarning,0834.0,5.00,000.00,027.7,025.7,000.0,036.2,029.4,23.0,0001.8,0013.34,0007.81,0006.92
2023-08-23 05:43:00,SystemResetWarning,0834.0,5.00,000.00,027.8,026.0,000.0,036.2,029.5,23.0,0001.6,0013.35,0007.78,0006.93
2023-08-23 05:44:00,SystemResetWarning,0834.0,4.99,000.00,027.8,026.3,000.0,036.2,029.6,22.9,0001.2,0013.63,0007.76,0006.92
2023-08-23 05:45:00,SystemResetWarning,0834.1,4.99,000.00,027.9,026.5,000.0,036.2,029.6,22.8,0000.8,0013.61,0007.72,0006.93
2023-08-23 05:46:00,SystemResetWarning,0834.1,5.00,000.00,027.9,026.7,000.0,036.2,029.7,22.7,0000.7,0013.41,0007.68,0006.93
2023-08-23 05:47:00,SystemResetWarning,0834.1,5.01,000.00,028.0,026.8,000.0,036.3,029.8,22.5,0001.0,0013.41,0007.71,0006.95
2023-08-23 05:48:00,SystemResetWarning,0834.1,5.01,000.00,028.0,027.0,000.0,036.3,029.8,22.4,0000.6,0013.34,0007.70,0006.96
2023-08-23 05:49:00,SystemResetWarning,0834.1,5.01,000.00,028.1,027.0,000.0,036.3,029.9,22.4,0000.3,0013.35,0007.72,0006.98
2023-08-23 05:50:00,SystemResetWarning,0834.0,4.98,000.00,028.1,025.7,000.0,036.2,029.6,22.3,-000.0,0013.33,0007.74,0006.98
2023-08-23 05:51:00,SystemResetWarning,0834.0,5.00,000.00,027.9,023.9,000.0,036.1,029.2,22.5,-000.1,0013.35,0007.73,0006.97
2023-08-23 05:52:00,SystemResetWarning,0833.9,5.01,000.00,027.8,023.6,000.0,036.0,029.0,22.7,-000.1,0013.03,0007.74,0006.97
2023-08-23 05:53:00,SystemResetWarning,0833.9,5.01,000.00,027.7,023.9,000.0,036.1,029.0,22.9,-000.4,0012.57,0007.70,0006.94
2023-08-23 05:54:00,SystemResetWarning,0833.9,5.00,000.00,027.7,024.3,000.0,036.1,029.1,23.0,-000.3,0012.17,0007.69,0006.93
2023-08-23 05:55:00,SystemResetWarning,0834.0,5.00,000.00,027.7,024.8,000.0,036.1,029.2,23.0,-000.1,0011.54,0007.69,0006.93
2023-08-23 05:56:00,SystemResetWarning,0834.0,5.01,000.00,027.7,025.2,000.0,036.1,029.3,23.0,0000.2,0011.53,0007.72,0006.94
2023-08-23 05:57:00,SystemResetWarning,0834.0,5.00,000.00,027.7,025.6,000.0,036.2,029.4,23.0,0000.3,0011.72,0007.73,0006.94
2023-08-23 05:58:00,SystemResetWarning,0834.0,5.00,000.00,027.8,025.9,000.0,036.2,029.5,23.0,0000.4,0012.32,0007.76,0006.95
2023-08-23 05:59:00,SystemResetWarning,0834.0,5.00,000.00,027.8,026.2,000.0,036.2,029.5,22.9,0000.6,0012.44,0007.77,0006.95
